SCP
0 0 0 0 0 0 0 0 0 0 0 0 0 0 0 0 0 0 0 0 0 0 0 0 0 1 1 1 0 0 0 0 0 0 0 0 0 0 0 0 0 0 0
0 0 0 0 0 0 0 0 0 0 0 0 0 0 0 0 0 0 0 0 0 0 0 1 1 1 1 1 1 1 1 0 0 0 0 0 0 0 0 0 0 0 0
0 0 0 0 0 0 0 0 0 0 0 0 0 0 0 0 0 0 0 0 0 0 0 0 0 0 0 0 0 0 1 0 0 0 0 0 0 0 0 0 0 0 0
0 0 0 0 0 0 0 0 0 0 0 0 0 0 0 0 0 0 0 0 0 0 0 0 -0 0 -0 -0 0 0 0 0 0 0 0 0 0 0 0 0 0 0 0
0 0 0 0 0 0 0 0 0 0 0 0 0 0 0 0 1 0 0 0 0 0 0 0 0 0 0 0 0 0 0 0 1 0 0 0 0 0 0 0 0 0 0
0 0 0 0 0 0 1 1 1 0 1 0 0 1 1 1 0 0 0 0 0 0 0 0 0 0 0 0 0 0 0 0 1 1 1 0 0 0 0 0 0 0 0
0 0 0 0 0 0 1 1 0 0 1 0 0 0 0 0 0 0 0 0 0 0 0 0 0 0 0 0 0 0 0 1 1 0 0 1 0 0 0 0 0 0 0
1 1 0 0 0 0 0 0 0 0 0 0 0 0 0 0 0 0 0 0 0 0 0 0 0 0 0 0 0 0 0 1 1 0 1 1 0 0 0 0 0 -0 0
0 0 0 0 0 0 1 0 0 0 0 0 0 0 0 0 0 0 0 0 0 0 0 0 0 0 0 0 0 0 0 1 1 0 0 0 0 0 0 0 0 0 0
0 0 0 0 0 0 0 0 0 0 0 0 0 0 0 0 0 0 0 0 0 0 0 0 0 0 0 0 0 0 0 0 0 1 1 0 0 0 0 0 0 0 -0
0 0 0 0 0 0 0 0 0 0 0 0 0 0 0 0 0 0 0 0 -0 -0 0 0 0 0 0 0 0 0 0 0 0 0 0 0 0 0 0 0 0 0 0
0 0 0 0 0 0 0 0 0 0 0 0 0 0 0 0 0 0 0 0 0 0 0 0 0 0 0 0 0 0 0 0 0 0 0 0 0 0 0 0 0 0 0
0 0 0 0 0 0 0 0 0 0 0 0 0 0 0 0 0 0 0 0 0 0 0 0 0 0 0 0 0 0 0 0 0 0 0 0 0 0 0 0 0 0 0
0 0 0 0 0 0 0 0 0 0 0 0 0 0 0 0 0 0 0 0 0 0 0 0 0 0 0 0 0 0 0 0 0 0 0 0 0 0 0 0 0 0 0
-0 -0 -0 0 0 0 0 0 0 0 0 0 0 0 0 0 0 0 0 0 0 0 0 0 0 0 0 0 0 0 0 0 0 0 0 0 0 0 0 0 0 0 0
0 0 0 0 0 0 0 0 0 0 0 0 0 0 0 0 0 0 0 0 0 0 0 0 0 0 0 0 0 0 0 0 0 0 0 0 0 0 0 0 0 0 0
-0 -0 -0 -0 0 0 0 0 0 0 0 0 0 0 0 0 0 0 0 0 0 0 0 0 0 0 0 0 0 0 0 1 1 0 0 0 0 0 0 0 0 0 0
0 0 0 0 0 0 0 0 0 0 0 0 0 0 0 0 0 0 0 0 0 0 0 0 0 0 0 0 0 0 0 0 0 0 0 0 0 0 0 0 0 0 0
0 0 0 0 0 0 0 0 0 0 0 0 0 0 0 0 0 0 0 0 0 0 0 0 0 0 0 0 0 0 0 0 0 0 0 0 0 0 0 0 0 0 0
0 0 0 0 0 0 0 0 0 0 0 0 0 0 0 0 0 0 0 0 0 0 0 0 0 0 0 0 0 0 0 0 0 0 0 0 0 0 0 0 0 0 0
0 0 0 0 0 0 0 0 0 0 0 0 0 0 0 0 0 0 0 0 0 0 0 0 0 0 0 0 0 0 0 0 0 0 0 0 0 0 0 0 0 0 0
0 0 0 0 0 0 0 0 0 0 0 0 0 0 0 0 0 0 0 0 0 0 0 0 0 0 0 0 0 0 0 0 0 0 0 0 0 0 0 0 0 0 0
0 0 0 0 0 0 0 0 0 0 0 0 0 0 0 0 0 0 0 0 0 0 0 0 0 0 0 0 0 0 0 0 0 0 0 0 0 0 0 0 0 0 0
0 0 0 0 0 0 0 0 0 0 0 0 0 0 0 0 0 0 0 0 0 0 0 0 0 0 0 0 0 0 0 0 0 0 0 -0 0 0 0 0 0 0 0
0 0 0 0 0 0 0 0 0 0 0 0 0 0 0 0 0 0 0 0 0 0 0 0 0 0 0 0 0 0 0 0 0 0 0 0 0 0 0 0 0 0 -0
0 0 0 0 0 0 0 0 0 0 0 0 0 0 0 0 0 0 0 0 0 0 0 0 0 0 0 0 0 0 0 0 0 0 0 0 0 0 0 0 0 0 0
Wind_Speed_500mb
25 27 29 31 32 31 30 29 28 24 20 21 22 24 26 23 20 20 18 16 14 16 14 13 12 16 19 17 15 17 17 19 20 22 24 21 20 21 20 22 15 15 16
25 29 29 32 34 34 33 33 30 32 31 31 29 33 31 27 21 21 21 19 20 23 25 24 20 17 16 13 15 16 17 17 20 20 24 26 25 23 22 21 20 17 18
21 21 26 29 25 27 33 34 36 40 41 39 39 33 30 31 31 28 23 27 28 29 26 25 23 20 21 21 20 17 16 17 18 17 18 21 25 27 25 27 26 19 21
23 27 30 31 25 27 36 37 37 41 47 47 48 42 40 37 32 27 30 26 26 27 26 18 14 16 17 18 20 22 22 21 19 19 19 21 25 29 26 25 28 24 23
34 33 40 39 38 40 47 47 44 45 49 49 48 46 43 40 31 29 32 34 32 30 29 27 23 23 19 21 23 23 25 26 29 26 26 25 26 33 33 29 29 29 26
41 39 45 50 49 50 56 58 54 50 51 55 55 51 48 41 42 37 38 37 36 37 32 32 31 27 24 20 20 21 27 28 27 30 35 38 29 34 38 38 34 33 30
46 46 48 52 52 52 54 52 55 56 57 60 60 61 56 49 53 55 44 33 34 32 31 27 30 22 22 24 26 26 27 25 29 34 25 31 30 30 35 34 36 38 34
42 45 46 48 47 51 59 56 52 58 60 63 59 55 59 56 45 36 29 27 25 32 26 25 22 28 28 28 26 26 30 25 22 23 27 31 37 41 42 41 38 36 40
46 49 52 58 57 57 55 55 54 55 61 62 63 53 32 17 19 22 38 32 26 30 39 39 31 29 28 29 30 31 31 35 34 33 32 33 35 42 39 37 36 34 40
42 48 50 55 53 51 57 58 59 61 47 54 60 64 54 43 29 36 45 60 58 41 42 46 40 32 32 32 37 37 39 38 41 34 26 28 33 35 40 42 36 37 35
32 35 41 43 45 45 50 53 52 49 49 48 50 54 47 42 47 38 49 64 72 61 52 48 40 34 40 43 39 37 34 36 40 34 33 31 32 29 29 33 32 33 37
21 21 20 21 23 25 27 30 35 39 39 42 45 49 56 48 60 45 64 80 71 76 63 43 44 46 45 42 37 34 35 38 36 36 36 38 28 26 30 33 32 35 37
27 29 31 33 33 31 30 29 30 30 32 34 33 36 44 44 49 57 59 65 63 62 65 57 48 39 37 36 37 33 35 40 40 40 39 38 33 29 32 33 34 35 34
40 40 41 43 44 44 43 40 38 37 35 36 38 40 38 35 32 29 34 39 46 48 52 57 47 43 43 37 38 37 42 43 45 46 38 35 33 33 32 26 31 37 37
46 49 52 52 48 46 46 45 45 46 44 44 44 44 44 42 41 40 45 46 43 42 61 62 57 56 60 62 69 49 44 41 42 44 46 47 34 33 31 36 42 41 40
51 56 62 64 58 53 52 51 50 49 51 50 50 50 50 51 50 50 49 47 48 55 65 61 69 69 63 61 63 62 54 47 47 47 47 47 49 49 42 42 42 39 38
46 53 56 52 51 51 52 53 53 53 54 52 51 52 51 52 52 51 52 53 51 48 59 77 67 63 67 66 70 69 64 60 54 48 52 56 57 55 42 40 37 36 35
49 54 49 49 53 57 59 61 62 62 64 66 65 64 62 61 60 57 55 52 50 51 56 71 65 53 53 50 56 65 71 67 59 54 62 68 63 50 46 38 42 40 39
51 51 51 54 58 62 67 68 69 72 72 73 73 74 75 72 74 72 69 68 63 60 58 65 69 61 56 51 57 64 69 64 58 60 65 62 58 52 58 51 49 49 47
46 49 53 58 64 71 78 80 80 79 80 81 79 78 77 77 81 82 81 81 77 76 76 76 78 77 72 67 61 60 66 61 61 61 64 62 56 57 66 67 58 55 59
54 59 66 73 80 88 89 82 75 71 68 67 63 61 60 60 62 67 74 80 84 85 87 88 88 85 87 84 75 72 70 65 65 67 66 59 57 57 66 69 59 53 60
65 72 80 89 92 84 72 62 56 52 48 48 49 46 46 46 49 53 58 62 66 74 77 81 89 79 85 84 78 69 70 70 77 77 67 70 59 59 53 51 55 58 60
82 88 87 81 71 58 47 43 44 45 45 45 47 48 48 47 49 54 55 53 53 54 56 64 69 72 73 77 75 77 75 72 77 72 60 69 69 65 54 52 52 57 57
83 75 67 58 50 39 37 38 41 44 45 46 46 46 49 48 48 51 49 50 48 45 47 47 55 62 67 68 61 55 56 61 71 74 75 83 71 80 68 59 53 58 64
63 57 50 41 37 35 35 38 41 43 46 48 49 48 46 46 41 40 41 44 45 45 50 48 45 47 46 49 52 59 60 54 59 60 44 55 56 61 62 60 62 67 69
48 42 39 36 36 36 36 38 42 47 51 51 51 49 48 47 46 45 47 47 51 50 46 45 43 42 43 43 42 41 49 66 71 57 66 57 56 52 45 52 52 59 54
Wind_Direction_500mb
262 268 268 264 265 267 271 268 260 266 266 271 279 270 258 255 254 251 264 262 273 281 284 281 266 276 278 274 297 302 295 299 296 288 293 292 288 285 293 289 281 284 280
267 270 272 272 269 275 277 275 270 268 268 272 276 276 265 249 253 263 272 273 277 280 277 271 267 274 294 291 293 278 281 292 295 306 299 289 285 280 277 282 276 275 275
279 280 278 280 289 282 275 277 277 278 277 278 279 292 280 258 264 278 267 285 279 278 276 275 261 257 256 265 282 275 280 294 296 303 289 282 280 278 280 278 275 262 267
272 275 278 282 293 286 281 276 280 284 284 284 281 279 277 280 282 277 273 271 274 281 280 276 263 269 261 254 259 266 272 274 279 279 291 299 283 278 271 273 275 271 268
271 276 279 284 283 285 284 283 278 285 291 291 283 281 277 276 263 262 280 276 280 271 279 275 270 269 268 277 262 271 272 270 269 271 274 280 288 279 269 265 266 267 261
290 281 282 283 283 283 281 283 281 285 293 294 290 283 283 278 272 273 266 285 284 273 268 267 263 264 267 283 273 274 279 285 285 283 279 275 284 286 275 265 256 261 260
288 292 293 293 294 293 291 290 286 283 289 297 298 289 282 282 276 271 270 279 283 268 273 259 254 256 281 281 280 284 286 281 282 290 296 270 286 286 281 276 264 257 258
290 288 290 290 292 289 284 287 291 282 283 294 295 288 289 279 271 276 267 263 273 263 251 239 251 276 278 277 277 286 293 297 301 289 281 279 291 284 280 280 273 264 255
278 279 286 280 280 276 279 283 282 277 282 288 289 284 272 250 274 247 282 278 279 278 262 261 269 278 269 270 279 286 289 297 302 299 295 279 282 290 286 275 276 268 256
276 277 276 278 277 279 275 275 275 278 285 287 285 281 275 269 269 280 255 282 273 265 267 267 267 267 270 277 285 285 285 284 286 292 295 294 281 275 285 273 277 268 261
302 296 282 280 281 281 278 278 282 281 282 281 277 283 272 260 252 258 261 268 272 273 272 260 259 250 270 276 275 277 277 276 277 283 293 304 291 286 286 283 271 266 261
18 11 7 350 338 320 308 304 297 297 291 288 282 272 283 273 272 264 265 265 262 266 269 261 252 261 267 270 275 276 274 272 263 278 286 298 294 292 281 283 277 268 267
355 351 344 339 334 333 331 324 315 309 297 292 289 288 276 274 266 273 274 274 265 263 267 265 265 264 259 270 277 271 260 258 269 279 284 287 288 291 306 285 280 275 267
359 350 340 332 324 318 313 310 306 302 296 291 286 282 280 284 282 273 275 279 279 274 265 263 265 264 270 275 278 276 261 259 266 273 281 277 280 290 307 291 282 282 275
359 354 346 339 328 319 313 308 305 303 299 296 292 287 286 282 282 276 269 264 262 267 272 268 263 258 270 276 272 275 260 261 262 266 275 268 273 294 295 289 292 290 284
337 336 335 330 322 318 314 312 306 300 296 293 294 291 287 284 280 278 276 273 269 266 266 268 270 276 273 268 264 269 267 266 263 263 269 262 278 289 284 281 294 298 290
330 330 329 329 323 321 317 312 310 307 303 299 295 294 292 290 287 282 277 275 273 270 270 273 272 268 263 263 265 267 269 268 265 262 256 263 277 283 266 265 287 299 295
324 324 324 327 325 324 322 315 309 305 303 300 298 296 293 292 289 289 287 285 282 276 273 274 277 274 265 261 262 263 265 268 268 255 250 256 271 273 256 261 275 297 285
318 318 319 317 317 316 315 310 304 301 296 292 291 290 289 287 285 283 281 279 278 277 277 277 278 276 273 267 261 257 261 264 263 258 261 264 264 262 257 263 270 281 288
306 306 307 307 307 307 307 304 299 295 292 290 289 287 284 281 279 278 276 275 274 274 273 272 272 272 271 269 263 262 263 260 259 267 269 267 264 254 256 263 274 275 282
302 304 304 304 305 307 307 304 299 295 293 291 289 287 285 284 281 279 278 276 274 270 268 268 270 272 271 269 267 267 264 266 263 262 265 264 257 252 256 263 269 267 272
302 303 304 305 306 306 303 303 302 301 301 300 300 298 293 290 291 287 280 275 270 267 267 267 267 264 266 269 270 269 268 265 266 259 261 261 264 260 259 257 261 265 267
302 304 306 305 306 306 309 305 303 306 308 308 306 303 299 298 297 295 292 282 275 269 262 261 262 267 272 270 271 270 266 264 264 262 257 259 259 261 260 257 257 259 268
307 310 311 312 311 315 315 313 307 308 309 308 307 304 300 300 298 294 294 287 279 270 267 263 260 261 264 268 268 265 260 258 259 258 256 260 259 258 255 257 256 257 271
312 315 316 318 320 322 315 315 316 314 312 312 309 304 301 299 298 295 292 285 279 270 271 272 266 263 259 257 256 254 250 255 255 259 264 261 262 260 260 257 257 265 270
320 324 327 329 326 326 327 326 323 320 320 320 319 314 309 304 297 293 294 290 287 279 274 271 269 262 261 260 262 262 263 256 253 260 255 255 259 258 255 256 253 267 269
Wind_Speed_850mb
25 27 29 31 32 31 30 29 28 24 20 21 22 24 26 23 20 20 18 16 14 16 14 13 12 16 19 17 15 17 17 19 20 22 24 21 20 21 20 22 15 15 16
25 29 29 32 34 34 33 33 30 32 31 31 29 33 31 27 21 21 21 19 20 23 25 24 20 17 16 13 15 16 17 17 20 20 24 26 25 23 22 21 20 17 18
21 21 26 29 25 27 33 34 36 40 41 39 39 33 30 31 31 28 23 27 28 29 26 25 23 20 21 21 20 17 16 17 18 17 18 21 25 27 25 27 26 19 21
23 27 30 31 25 27 36 37 37 41 47 47 48 42 40 37 32 27 30 26 26 27 26 18 14 16 17 18 20 22 22 21 19 19 19 21 25 29 26 25 28 24 23
34 33 40 39 38 40 47 47 44 45 49 49 48 46 43 40 31 29 32 34 32 30 29 27 23 23 19 21 23 23 25 26 29 26 26 25 26 33 33 29 29 29 26
41 39 45 50 49 50 56 58 54 50 51 55 55 51 48 41 42 37 38 37 36 37 32 32 31 27 24 20 20 21 27 28 27 30 35 38 29 34 38 38 34 33 30
46 46 48 52 52 52 54 52 55 56 57 60 60 61 56 49 53 55 44 33 34 32 31 27 30 22 22 24 26 26 27 25 29 34 25 31 30 30 35 34 36 38 34
42 45 46 48 47 51 59 56 52 58 60 63 59 55 59 56 45 36 29 27 25 32 26 25 22 28 28 28 26 26 30 25 22 23 27 31 37 41 42 41 38 36 40
46 49 52 58 57 57 55 55 54 55 61 62 63 53 32 17 19 22 38 32 26 30 39 39 31 29 28 29 30 31 31 35 34 33 32 33 35 42 39 37 36 34 40
42 48 50 55 53 51 57 58 59 61 47 54 60 64 54 43 29 36 45 60 58 41 42 46 40 32 32 32 37 37 39 38 41 34 26 28 33 35 40 42 36 37 35
32 35 41 43 45 45 50 53 52 49 49 48 50 54 47 42 47 38 49 64 72 61 52 48 40 34 40 43 39 37 34 36 40 34 33 31 32 29 29 33 32 33 37
21 21 20 21 23 25 27 30 35 39 39 42 45 49 56 48 60 45 64 80 71 76 63 43 44 46 45 42 37 34 35 38 36 36 36 38 28 26 30 33 32 35 37
27 29 31 33 33 31 30 29 30 30 32 34 33 36 44 44 49 57 59 65 63 62 65 57 48 39 37 36 37 33 35 40 40 40 39 38 33 29 32 33 34 35 34
40 40 41 43 44 44 43 40 38 37 35 36 38 40 38 35 32 29 34 39 46 48 52 57 47 43 43 37 38 37 42 43 45 46 38 35 33 33 32 26 31 37 37
46 49 52 52 48 46 46 45 45 46 44 44 44 44 44 42 41 40 45 46 43 42 61 62 57 56 60 62 69 49 44 41 42 44 46 47 34 33 31 36 42 41 40
51 56 62 64 58 53 52 51 50 49 51 50 50 50 50 51 50 50 49 47 48 55 65 61 69 69 63 61 63 62 54 47 47 47 47 47 49 49 42 42 42 39 38
46 53 56 52 51 51 52 53 53 53 54 52 51 52 51 52 52 51 52 53 51 48 59 77 67 63 67 66 70 69 64 60 54 48 52 56 57 55 42 40 37 36 35
49 54 49 49 53 57 59 61 62 62 64 66 65 64 62 61 60 57 55 52 50 51 56 71 65 53 53 50 56 65 71 67 59 54 62 68 63 50 46 38 42 40 39
51 51 51 54 58 62 67 68 69 72 72 73 73 74 75 72 74 72 69 68 63 60 58 65 69 61 56 51 57 64 69 64 58 60 65 62 58 52 58 51 49 49 47
46 49 53 58 64 71 78 80 80 79 80 81 79 78 77 77 81 82 81 81 77 76 76 76 78 77 72 67 61 60 66 61 61 61 64 62 56 57 66 67 58 55 59
54 59 66 73 80 88 89 82 75 71 68 67 63 61 60 60 62 67 74 80 84 85 87 88 88 85 87 84 75 72 70 65 65 67 66 59 57 57 66 69 59 53 60
65 72 80 89 92 84 72 62 56 52 48 48 49 46 46 46 49 53 58 62 66 74 77 81 89 79 85 84 78 69 70 70 77 77 67 70 59 59 53 51 55 58 60
82 88 87 81 71 58 47 43 44 45 45 45 47 48 48 47 49 54 55 53 53 54 56 64 69 72 73 77 75 77 75 72 77 72 60 69 69 65 54 52 52 57 57
83 75 67 58 50 39 37 38 41 44 45 46 46 46 49 48 48 51 49 50 48 45 47 47 55 62 67 68 61 55 56 61 71 74 75 83 71 80 68 59 53 58 64
63 57 50 41 37 35 35 38 41 43 46 48 49 48 46 46 41 40 41 44 45 45 50 48 45 47 46 49 52 59 60 54 59 60 44 55 56 61 62 60 62 67 69
48 42 39 36 36 36 36 38 42 47 51 51 51 49 48 47 46 45 47 47 51 50 46 45 43 42 43 43 42 41 49 66 71 57 66 57 56 52 45 52 52 59 54
Wind_Direction_850mb
262 268 268 264 265 267 271 268 260 266 266 271 279 270 258 255 254 251 264 262 273 281 284 281 266 276 278 274 297 302 295 299 296 288 293 292 288 285 293 289 281 284 280
267 270 272 272 269 275 277 275 270 268 268 272 276 276 265 249 253 263 272 273 277 280 277 271 267 274 294 291 293 278 281 292 295 306 299 289 285 280 277 282 276 275 275
279 280 278 280 289 282 275 277 277 278 277 278 279 292 280 258 264 278 267 285 279 278 276 275 261 257 256 265 282 275 280 294 296 303 289 282 280 278 280 278 275 262 267
272 275 278 282 293 286 281 276 280 284 284 284 281 279 277 280 282 277 273 271 274 281 280 276 263 269 261 254 259 266 272 274 279 279 291 299 283 278 271 273 275 271 268
271 276 279 284 283 285 284 283 278 285 291 291 283 281 277 276 263 262 280 276 280 271 279 275 270 269 268 277 262 271 272 270 269 271 274 280 288 279 269 265 266 267 261
290 281 282 283 283 283 281 283 281 285 293 294 290 283 283 278 272 273 266 285 284 273 268 267 263 264 267 283 273 274 279 285 285 283 279 275 284 286 275 265 256 261 260
288 292 293 293 294 293 291 290 286 283 289 297 298 289 282 282 276 271 270 279 283 268 273 259 254 256 281 281 280 284 286 281 282 290 296 270 286 286 281 276 264 257 258
290 288 290 290 292 289 284 287 291 282 283 294 295 288 289 279 271 276 267 263 273 263 251 239 251 276 278 277 277 286 293 297 301 289 281 279 291 284 280 280 273 264 255
278 279 286 280 280 276 279 283 282 277 282 288 289 284 272 250 274 247 282 278 279 278 262 261 269 278 269 270 279 286 289 297 302 299 295 279 282 290 286 275 276 268 256
276 277 276 278 277 279 275 275 275 278 285 287 285 281 275 269 269 280 255 282 273 265 267 267 267 267 270 277 285 285 285 284 286 292 295 294 281 275 285 273 277 268 261
302 296 282 280 281 281 278 278 282 281 282 281 277 283 272 260 252 258 261 268 272 273 272 260 259 250 270 276 275 277 277 276 277 283 293 304 291 286 286 283 271 266 261
18 11 7 350 338 320 308 304 297 297 291 288 282 272 283 273 272 264 265 265 262 266 269 261 252 261 267 270 275 276 274 272 263 278 286 298 294 292 281 283 277 268 267
355 351 344 339 334 333 331 324 315 309 297 292 289 288 276 274 266 273 274 274 265 263 267 265 265 264 259 270 277 271 260 258 269 279 284 287 288 291 306 285 280 275 267
359 350 340 332 324 318 313 310 306 302 296 291 286 282 280 284 282 273 275 279 279 274 265 263 265 264 270 275 278 276 261 259 266 273 281 277 280 290 307 291 282 282 275
359 354 346 339 328 319 313 308 305 303 299 296 292 287 286 282 282 276 269 264 262 267 272 268 263 258 270 276 272 275 260 261 262 266 275 268 273 294 295 289 292 290 284
337 336 335 330 322 318 314 312 306 300 296 293 294 291 287 284 280 278 276 273 269 266 266 268 270 276 273 268 264 269 267 266 263 263 269 262 278 289 284 281 294 298 290
330 330 329 329 323 321 317 312 310 307 303 299 295 294 292 290 287 282 277 275 273 270 270 273 272 268 263 263 265 267 269 268 265 262 256 263 277 283 266 265 287 299 295
324 324 324 327 325 324 322 315 309 305 303 300 298 296 293 292 289 289 287 285 282 276 273 274 277 274 265 261 262 263 265 268 268 255 250 256 271 273 256 261 275 297 285
318 318 319 317 317 316 315 310 304 301 296 292 291 290 289 287 285 283 281 279 278 277 277 277 278 276 273 267 261 257 261 264 263 258 261 264 264 262 257 263 270 281 288
306 306 307 307 307 307 307 304 299 295 292 290 289 287 284 281 279 278 276 275 274 274 273 272 272 272 271 269 263 262 263 260 259 267 269 267 264 254 256 263 274 275 282
302 304 304 304 305 307 307 304 299 295 293 291 289 287 285 284 281 279 278 276 274 270 268 268 270 272 271 269 267 267 264 266 263 262 265 264 257 252 256 263 269 267 272
302 303 304 305 306 306 303 303 302 301 301 300 300 298 293 290 291 287 280 275 270 267 267 267 267 264 266 269 270 269 268 265 266 259 261 261 264 260 259 257 261 265 267
302 304 306 305 306 306 309 305 303 306 308 308 306 303 299 298 297 295 292 282 275 269 262 261 262 267 272 270 271 270 266 264 264 262 257 259 259 261 260 257 257 259 268
307 310 311 312 311 315 315 313 307 308 309 308 307 304 300 300 298 294 294 287 279 270 267 263 260 261 264 268 268 265 260 258 259 258 256 260 259 258 255 257 256 257 271
312 315 316 318 320 322 315 315 316 314 312 312 309 304 301 299 298 295 292 285 279 270 271 272 266 263 259 257 256 254 250 255 255 259 264 261 262 260 260 257 257 265 270
320 324 327 329 326 326 327 326 323 320 320 320 319 314 309 304 297 293 294 290 287 279 274 271 269 262 261 260 262 262 263 256 253 260 255 255 259 258 255 256 253 267 269